Back to catalog

COSMOS 715

AliveMilitaryLEO
NORAD 7682·PAYLOAD·🇷🇺 Russia

Launched Feb 28, 1975 from Plesetsk Cosmodrome

Loading…

Next Passes (next 24 hours)

TLE

FreshSource: Space-Track

Epoch: Sep 14, 2026, 09:31 UTC

1 07682U 75016E   26257.39669696 -.00000025  00000-0 -63649-4 0  9999
2 07682  74.0030  49.7479 0022442 306.8970  81.4437 12.44747057912983

Track COSMOS 715 in real time with AllMySat

Download on the App Store